DW3201 Weather Reports


Display with metric or nautical units.
time (UTC)temp
F
wind
direction
speed
MPH
gust
MPH
rain 1hr
in
rain 24hr
in
rain mn
in
humidity
%
barometer
mb
20191212001730 14 244 0.0 0.0 0.00 0.00 0.00 74 1033.9
20191212000729 14 244 0.0 0.0 0.00 0.00 0.00 73 1034.2
20191211235728 15 244 0.0 0.0 0.00 0.00 0.00 72 1034.2
20191211234727 15 244 0.0 0.0 0.00 0.00 0.00 71 1033.9
20191211233726 15 244 0.0 0.0 0.00 0.00 0.00 70 1033.9
20191211232725 16 244 0.0 0.0 0.00 0.00 0.00 69 1034.2
20191211231725 16 244 0.0 1.0 0.00 0.00 0.00 68 1034.2
20191211230724 17 244 0.0 0.0 0.00 0.00 0.00 66 1034.5
20191211225723 17 244 0.0 0.0 0.00 0.00 0.00 64 1034.2
20191211224722 18 244 0.0 0.0 0.00 0.00 0.00 63 1033.9
20191211223721 18 244 0.0 1.0 0.00 0.00 0.00 62 1033.9
20191211222720 19 244 0.0 2.0 0.00 0.00 0.00 61 1033.9
20191211221720 19 244 2.0 2.0 0.00 0.00 0.00 59 1033.5
20191211220718 19 244 2.0 3.0 0.00 0.00 0.00 57 1033.5
20191211215718 20 244 2.0 4.0 0.00 0.00 0.00 56 1033.5
20191211214717 20 220 2.0 4.0 0.00 0.00 0.00 56 1033.5
20191211213716 20 216 2.0 6.0 0.00 0.00 0.00 55 1033.5
20191211212715 21 282 1.0 6.0 0.00 0.00 0.00 54 1033.2
20191211211714 22 300 2.0 3.0 0.00 0.00 0.00 53 1033.5
20191211210713 22 300 1.0 4.0 0.00 0.00 0.00 53 1033.2
20191211205712 22 261 2.0 5.0 0.00 0.00 0.00 53 1032.8
20191211204711 21 265 3.0 4.0 0.00 0.00 0.00 51 1032.8
20191211203709 21 255 2.0 7.0 0.00 0.00 0.00 52 1032.8
20191211202707 21 230 2.0 6.0 0.00 0.00 0.00 53 1032.5
20191211201706 21 239 3.0 6.0 0.00 0.00 0.00 54 1032.5
20191211200705 21 284 3.0 5.0 0.00 0.00 0.00 54 1032.2
20191211195704 21 280 2.0 4.0 0.00 0.00 0.00 55 1031.8
20191211194702 21 279 3.0 7.0 0.00 0.00 0.00 56 1032.2
20191211193702 20 217 4.0 9.0 0.00 0.00 0.00 57 1031.8
20191211192700 21 284 3.0 5.0 0.00 0.00 0.00 58 1031.5
20191211191700 20 304 2.0 6.0 0.00 0.00 0.00 58 1031.5
20191211190659 20 296 4.0 9.0 0.00 0.00 0.00 57 1031.5
20191211185658 19 315 2.0 10.0 0.00 0.00 0.00 58 1031.5
20191211184657 19 298 5.0 9.0 0.00 0.00 0.00 59 1031.5
20191211183656 19 324 3.0 7.0 0.00 0.00 0.00 59 1031.2
20191211182650 19 319 4.0 9.0 0.00 0.00 0.00 58 1031.2
20191211181649 19 309 3.0 12.0 0.00 0.00 0.00 59 1030.8
20191211180648 19 294 5.0 9.0 0.00 0.00 0.00 60 1030.8
20191211175647 19 298 3.0 6.0 0.00 0.00 0.00 62 1031.2
20191211174646 19 315 4.0 11.0 0.00 0.00 0.00 60 1031.2
20191211173645 19 306 2.0 7.0 0.00 0.00 0.00 61 1031.2
20191211172644 19 303 3.0 7.0 0.00 0.00 0.00 60 1031.2
20191211171643 18 300 3.0 6.0 0.00 0.00 0.00 62 1031.2
20191211170642 18 325 4.0 12.0 0.00 0.00 0.00 62 1031.2
20191211165641 17 293 4.0 12.0 0.00 0.00 0.00 61 1031.2
20191211164641 17 302 5.0 10.0 0.00 0.00 0.00 63 1031.2
20191211163640 17 290 6.0 12.0 0.00 0.00 0.00 63 1031.2
20191211162639 17 307 4.0 12.0 0.00 0.00 0.00 63 1031.2
20191211161638 17 315 5.0 12.0 0.00 0.00 0.00 64 1031.2
20191211160637 17 312 6.0 11.0 0.00 0.00 0.00 66 1030.8
20191211155637 17 317 4.0 11.0 0.00 0.00 0.00 67 1030.8
20191211154635 17 297 7.0 12.0 0.00 0.00 0.00 66 1030.8
20191211153634 17 290 6.0 11.0 0.00 0.00 0.00 69 1030.8
20191211152633 16 287 4.0 12.0 0.00 0.00 0.00 71 1030.5
20191211151633 16 309 3.0 10.0 0.00 0.00 0.00 72 1030.1
20191211150631 16 296 3.0 10.0 0.00 0.00 0.00 73 1030.1
20191211145630 16 307 5.0 13.0 0.00 0.00 0.00 73 1029.8
20191211144629 15 290 4.0 12.0 0.00 0.00 0.00 74 1029.8
20191211143624 15 278 2.0 10.0 0.00 0.00 0.00 74 1029.5
20191211142623 15 302 5.0 10.0 0.00 0.00 0.00 75 1029.1
20191211141622 15 289 4.0 7.0 0.00 0.00 0.00 76 1029.1
20191211140622 14 313 2.0 7.0 0.00 0.00 0.00 76 1028.8
20191211135620 14 265 2.0 7.0 0.00 0.00 0.00 76 1028.4
20191211134620 14 282 4.0 5.0 0.00 0.00 0.00 76 1028.1
20191211133619 14 283 2.0 5.0 0.00 0.00 0.00 76 1027.8
20191211132618 14 283 2.0 6.0 0.00 0.00 0.00 76 1027.8
20191211131617 14 284 4.0 11.0 0.00 0.00 0.00 76 1027.8
20191211130616 13 283 2.0 6.0 0.00 0.00 0.00 76 1027.8
20191211125615 13 290 3.0 7.0 0.00 0.00 0.00 76 1027.4
20191211124613 13 277 3.0 7.0 0.00 0.00 0.00 76 1027.4
20191211123612 13 273 4.0 9.0 0.00 0.00 0.00 76 1027.1
20191211122611 13 280 5.0 7.0 0.00 0.00 0.00 76 1027.1
20191211121610 13 242 3.0 7.0 0.00 0.00 0.00 76 1027.1
20191211120609 13 284 4.0 12.0 0.00 0.00 0.00 76 1027.1
20191211115608 12 269 4.0 8.0 0.00 0.00 0.00 76 1026.8
20191211114607 12 272 3.0 8.0 0.00 0.00 0.00 76 1026.8
20191211113607 12 281 3.0 7.0 0.00 0.00 0.00 76 1026.8
20191211112605 12 253 2.0 6.0 0.00 0.00 0.00 77 1026.4
20191211111546 12 211 2.0 5.0 0.00 0.00 0.00 77 1026.4
20191211110546 12 282 2.0 5.0 0.00 0.00 0.00 77 1026.4
20191211105544 11 253 3.0 9.0 0.00 0.00 0.00 77 1026.1
20191211104542 11 273 2.0 6.0 0.00 0.00 0.00 77 1026.1
20191211103541 11 293 5.0 9.0 0.00 0.00 0.00 78 1025.7
20191211102540 11 270 3.0 5.0 0.00 0.00 0.00 77 1026.1
20191211101539 11 257 3.0 6.0 0.00 0.00 0.00 78 1026.1
20191211100538 11 277 4.0 11.0 0.00 0.00 0.00 78 1026.1
20191211095537 11 291 3.0 12.0 0.00 0.00 0.00 78 1025.7
20191211094536 11 259 4.0 9.0 0.00 0.00 0.00 78 1026.1
20191211093535 11 281 3.0 6.0 0.00 0.00 0.00 78 1026.1
20191211092534 10 259 3.0 7.0 0.00 0.00 0.00 78 1025.7
20191211091533 10 277 3.0 7.0 0.00 0.00 0.00 78 1025.7
20191211090533 10 287 3.0 9.0 0.00 0.00 0.00 78 1025.7
20191211085532 10 277 4.0 7.0 0.00 0.00 0.00 78 1025.4
20191211084531 10 238 3.0 5.0 0.00 0.00 0.00 78 1025.7
20191211083530 10 219 4.0 6.0 0.00 0.00 0.00 78 1025.7
20191211082529 10 242 2.0 6.0 0.00 0.00 0.00 78 1026.1
20191211081527 9 292 3.0 6.0 0.00 0.00 0.00 78 1026.1
20191211080526 9 303 3.0 6.0 0.00 0.00 0.00 78 1026.1
20191211075525 10 288 3.0 7.0 0.00 0.00 0.00 78 1025.7
20191211074524 10 262 3.0 9.0 0.00 0.00 0.00 78 1026.1
20191211073523 10 286 1.0 7.0 0.00 0.00 0.00 78 1025.7
20191211072522 10 230 3.0 7.0 0.00 0.00 0.00 78 1025.7
20191211071521 10 252 2.0 5.0 0.00 0.00 0.00 78 1025.7
20191211070520 10 285 3.0 8.0 0.00 0.00 0.00 78 1026.1
20191211065519 11 267 3.0 7.0 0.00 0.00 0.00 77 1025.7
20191211064508 11 277 2.0 6.0 0.00 0.00 0.00 77 1026.1
20191211063507 11 258 3.0 9.0 0.00 0.00 0.00 76 1026.1
20191211062507 11 288 3.0 11.0 0.00 0.00 0.00 76 1026.1
20191211061448 11 253 2.0 10.0 0.00 0.00 0.00 76 1026.1
20191211060446 12 274 2.0 9.0 0.00 0.00 0.00 75 1026.1
20191211055438 12 287 3.0 9.0 0.00 0.00 0.00 75 1025.7
20191211054437 12 262 4.0 10.0 0.00 0.00 0.00 74 1025.7
20191211053437 12 268 4.0 7.0 0.00 0.00 0.00 74 1025.7
20191211052435 13 235 4.0 14.0 0.00 0.00 0.00 74 1025.7
20191211051435 13 274 4.0 9.0 0.00 0.00 0.00 74 1025.7
20191211050433 13 285 3.0 14.0 0.00 0.00 0.00 74 1025.7
20191211045433 13 242 2.0 10.0 0.00 0.00 0.00 75 1025.7
20191211044432 14 251 4.0 11.0 0.00 0.00 0.00 76 1025.7
20191211043431 14 271 4.0 11.0 0.00 0.00 0.00 76 1025.7
20191211042430 14 263 2.0 10.0 0.00 0.00 0.00 76 1025.7
20191211041429 14 238 3.0 11.0 0.00 0.00 0.00 77 1025.7
20191211040426 14 257 2.0 6.0 0.00 0.00 0.00 77 1025.7
20191211035425 14 279 4.0 7.0 0.00 0.00 0.00 77 1025.7
20191211034424 14 261 2.0 6.0 0.00 0.00 0.00 77 1025.7
20191211033423 14 240 1.0 5.0 0.00 0.00 0.00 77 1025.7
20191211032422 14 257 3.0 4.0 0.00 0.00 0.00 77 1025.7
20191211031421 14 256 2.0 6.0 0.00 0.00 0.00 76 1025.7
20191211030420 14 272 4.0 6.0 0.00 0.00 0.00 76 1025.7
20191211025419 14 244 2.0 6.0 0.00 0.00 0.00 76 1025.7
20191211024418 15 258 3.0 8.0 0.00 0.00 0.00 75 1025.7
20191211023417 15 276 4.0 10.0 0.00 0.00 0.00 75 1025.7
20191211022416 15 245 3.0 7.0 0.00 0.00 0.00 74 1025.7
20191211021415 15 286 3.0 10.0 0.00 0.00 0.00 74 1025.7
20191211020414 15 257 3.0 10.0 0.00 0.00 0.00 74 1025.7
20191211015413 15 276 4.0 10.0 0.00 0.00 0.00 73 1025.7
20191211014412 15 292 3.0 6.0 0.00 0.00 0.00 72 1025.7
20191211013411 15 286 2.0 6.0 0.00 0.00 0.00 71 1025.7
20191211012410 15 253 4.0 7.0 0.00 0.00 0.00 70 1025.4
20191211011409 15 274 2.0 7.0 0.00 0.00 0.00 68 1025.4
20191211010408 15 256 3.0 7.0 0.00 0.00 0.00 67 1025.4
20191211005407 16 281 2.0 6.0 0.00 0.00 0.00 66 1025.4
20191211004406 16 255 3.0 9.0 0.00 0.00 0.00 66 1025.1
20191211003406 16 280 3.0 6.0 0.00 0.00 0.00 66 1025.1
20191211002405 16 267 2.0 9.0 0.00 0.00 0.00 65 1025.1